Weather History for Rogers City, MI

Change the Weather History Date:

Saturday, August 3, 2013

  Actual Average (KAPN) Record (KAPN)
Temperature  
Mean Temperature 60 °F 67 °F  
Max Temperature 66 °F 79 °F 98 °F (1988)
Min Temperature 54 °F 55 °F 39 °F (1918)
Degree Days  
Heating Degree Days 5 1  
Month to date heating degree days 3  
Since 1 June heating degree days 190  
Since 1 July heating degree days 47  
Cooling Degree Days 0 3  
Month to date cooling degree days 10  
Year to date cooling degree days 195  
Since 1 June cooling degree days 182  
Growing Degree Days 10 (Base 50)    
Moisture  
Dew Point 53 °F    
Average Humidity 77    
Maximum Humidity 94    
Minimum Humidity 62    
Precipitation  
Precipitation 0.00 in 0.10 in 0.86 in (1964)
Month to date precipitation 0.30  
Year to date precipitation 15.85  
Sea Level Pressure  
Sea Level Pressure 29.99 in    
Wind  
Wind Speed 7 mph (WNW)    
Max Wind Speed 14 mph    
Max Gust Speed 23 mph    
Visibility 10 miles    
Events      
T = Trace of Precipitation, MM = Missing Value Source: NWS Daily Summary

Daily Weather History Graph

Daily Weather History Graph

Search for Another Location

Airport:

Trip Planner

Search our weather history database for the weather conditions in past years. The results will help you decide how hot, cold, wet, or windy it might be!

Date:

Astronomy

Aug. 03, 2013 Rise Set
Actual Time 6:22 AM EDT 9:00 PM EDT
Civil Twilight 5:48 AM EDT 9:33 PM EDT
Nautical Twilight 5:05 AM EDT 10:15 PM EDT
Astronomical Twilight 4:16 AM EDT 11:04 PM EDT
Moon 3:28 AM EDT (8/3) 6:43 PM EDT (8/3)
Length of Visible Light 15h 45m
Length of Day
14h 37m
Waning Crescent, 9% of the Moon is Illuminated
Aug 3
Waning Crescent
Aug 6
New
Aug 14
First Quarter
Aug 20
Full
Aug 28
Last Quarter

Hourly Weather History & Observations

Time (EDT) Temp. Dew Point Humidity Pressure Visibility Wind Dir Wind Speed Gust Speed Precip Events Conditions
12:14 AM 57.2 °F 54.9 °F 92% 29.91 in 10.0 mi West 3.5 mph - N/A   Clear
12:35 AM 56.8 °F 54.7 °F 92% 29.92 in 10.0 mi West 4.6 mph - N/A   Clear
12:55 AM 56.5 °F 54.5 °F 93% 29.92 in 10.0 mi West 5.8 mph - N/A   Clear
1:14 AM 56.3 °F 54.1 °F 92% 29.92 in 10.0 mi West 5.8 mph - N/A   Clear
1:35 AM 56.5 °F 54.0 °F 91% 29.92 in 10.0 mi WNW 6.9 mph - N/A   Clear
1:54 AM 56.3 °F 53.6 °F 91% 29.92 in 10.0 mi West 5.8 mph - N/A   Clear
2:14 AM 55.8 °F 52.9 °F 90% 29.92 in 10.0 mi West 4.6 mph - N/A   Clear
2:35 AM 55.4 °F 52.7 °F 91% 29.92 in 10.0 mi West 4.6 mph - N/A   Clear
2:54 AM 55.2 °F 52.7 °F 91% 29.92 in 10.0 mi West 3.5 mph - N/A   Clear
3:15 AM 54.7 °F 52.3 °F 92% 29.92 in 10.0 mi West 4.6 mph - N/A   Clear
3:34 AM 54.7 °F 52.3 °F 92% 29.92 in 10.0 mi West 4.6 mph - N/A   Clear
3:55 AM 54.7 °F 52.2 °F 91% 29.93 in 10.0 mi West 4.6 mph - N/A   Clear
4:15 AM 54.0 °F 51.6 °F 92% 29.93 in 10.0 mi WSW 4.6 mph - N/A   Clear
4:34 AM 54.3 °F 52.0 °F 92% 29.93 in 10.0 mi WSW 6.9 mph - N/A   Clear
4:54 AM 54.3 °F 52.0 °F 92% 29.93 in 10.0 mi WSW 5.8 mph - N/A   Clear
5:14 AM 54.5 °F 52.7 °F 94% 29.93 in 10.0 mi WSW 5.8 mph - N/A   Clear
5:35 AM 54.5 °F 52.3 °F 92% 29.94 in 10.0 mi WSW 5.8 mph - N/A   Clear
5:55 AM 54.5 °F 52.3 °F 92% 29.94 in 10.0 mi WSW 5.8 mph - N/A   Clear
6:14 AM 55.0 °F 52.9 °F 92% 29.94 in 10.0 mi WSW 8.1 mph - N/A   Clear
6:35 AM 55.4 °F 53.1 °F 92% 29.94 in 10.0 mi West 6.9 mph - N/A   Clear
6:55 AM 56.1 °F 53.6 °F 91% 29.95 in 10.0 mi West 6.9 mph - N/A   Clear
7:14 AM 56.7 °F 54.0 °F 91% 29.95 in 10.0 mi West 5.8 mph - N/A   Clear
7:35 AM 57.9 °F 54.7 °F 89% 29.95 in 10.0 mi West 5.8 mph - N/A   Clear
7:54 AM 58.8 °F 55.4 °F 88% 29.96 in 10.0 mi West 6.9 mph - N/A   Clear
8:15 AM 59.7 °F 55.6 °F 86% 29.96 in 10.0 mi West 9.2 mph - N/A   Clear
8:35 AM 60.6 °F 55.6 °F 83% 29.97 in 10.0 mi WNW 9.2 mph - N/A   Clear
8:54 AM 61.2 °F 55.4 °F 81% 29.97 in 10.0 mi West 10.4 mph - N/A   Clear
9:15 AM 62.4 °F 55.6 °F 78% 29.97 in 10.0 mi WNW 10.4 mph 16.1 mph N/A   Clear
9:35 AM 62.6 °F 54.7 °F 75% 29.98 in 10.0 mi WNW 10.4 mph 16.1 mph N/A   Clear
9:54 AM 63.9 °F 54.7 °F 72% 29.98 in 10.0 mi West 9.2 mph 18.4 mph N/A   Clear
10:15 AM 64.0 °F 54.3 °F 71% 29.98 in 10.0 mi WNW 11.5 mph 18.4 mph N/A   Scattered Clouds
10:35 AM 63.9 °F 53.4 °F 69% 29.98 in 10.0 mi WNW 10.4 mph 21.9 mph N/A   Mostly Cloudy
10:54 AM 63.1 °F 52.7 °F 69% 29.99 in 10.0 mi WNW 12.7 mph 21.9 mph N/A   Overcast
11:15 AM 62.8 °F 52.5 °F 69% 29.99 in 10.0 mi WNW 10.4 mph 19.6 mph N/A   Overcast
11:34 AM 63.3 °F 52.0 °F 66% 30.00 in 10.0 mi WNW 10.4 mph 19.6 mph N/A   Overcast
11:55 AM 63.3 °F 51.6 °F 66% 30.00 in 10.0 mi NW 9.2 mph 19.6 mph N/A   Overcast
12:14 PM 63.7 °F 51.8 °F 65% 30.00 in 10.0 mi NW 10.4 mph 17.3 mph N/A   Overcast
12:35 PM 63.3 °F 52.0 °F 66% 30.00 in 10.0 mi WNW 10.4 mph 17.3 mph N/A   Overcast
12:55 PM 63.5 °F 52.5 °F 67% 30.01 in 10.0 mi NW 6.9 mph 17.3 mph N/A   Overcast
1:14 PM 63.7 °F 52.5 °F 67% 30.01 in 10.0 mi WNW 11.5 mph - N/A   Overcast
1:35 PM 63.5 °F 52.2 °F 67% 30.02 in 10.0 mi WNW 9.2 mph 17.3 mph N/A   Overcast
1:55 PM 64.0 °F 52.7 °F 67% 30.02 in 10.0 mi NW 13.8 mph 17.3 mph N/A   Overcast
2:14 PM 64.8 °F 54.0 °F 68% 30.02 in 10.0 mi WNW 6.9 mph - N/A   Overcast
2:35 PM 65.1 °F 54.1 °F 68% 30.02 in 10.0 mi NW 6.9 mph 17.3 mph N/A   Overcast
2:54 PM 63.1 °F 54.5 °F 73% 30.03 in 10.0 mi NW 8.1 mph - N/A   Overcast
3:15 PM 64.4 °F 53.8 °F 68% 30.03 in 10.0 mi NW 10.4 mph 20.7 mph N/A   Overcast
3:35 PM 64.2 °F 54.0 °F 69% 30.03 in 10.0 mi NW 10.4 mph 20.7 mph N/A   Overcast
3:54 PM 64.4 °F 53.2 °F 67% 30.03 in 10.0 mi NNW 11.5 mph 18.4 mph N/A   Overcast
4:15 PM 64.4 °F 53.8 °F 68% 30.03 in 10.0 mi NW 10.4 mph 20.7 mph N/A   Overcast
4:34 PM 64.6 °F 53.4 °F 67% 30.03 in 10.0 mi WNW 10.4 mph 17.3 mph N/A   Overcast
4:55 PM 64.9 °F 53.1 °F 65% 30.03 in 10.0 mi WNW 9.2 mph 20.7 mph N/A   Overcast
5:14 PM 66.4 °F 52.9 °F 62% 30.03 in 10.0 mi WNW 13.8 mph 20.7 mph N/A   Overcast
5:35 PM 64.6 °F 52.9 °F 66% 30.03 in 10.0 mi NW 11.5 mph 21.9 mph N/A   Overcast
5:54 PM 63.9 °F 53.1 °F 68% 30.03 in 10.0 mi WNW 12.7 mph 23.0 mph N/A   Overcast
6:15 PM 63.7 °F 53.8 °F 70% 30.04 in 10.0 mi NW 6.9 mph 17.3 mph N/A   Overcast
6:35 PM 65.1 °F 54.3 °F 68% 30.04 in 10.0 mi NW 8.1 mph - N/A   Mostly Cloudy
6:55 PM 63.5 °F 53.2 °F 69% 30.04 in 10.0 mi WNW 9.2 mph - N/A   Overcast
7:15 PM 63.1 °F 53.4 °F 71% 30.04 in 10.0 mi NW 6.9 mph - N/A   Overcast
7:34 PM 62.8 °F 53.6 °F 72% 30.05 in 10.0 mi NW 10.4 mph 17.3 mph N/A   Overcast
7:55 PM 62.8 °F 54.0 °F 73% 30.05 in 10.0 mi NW 10.4 mph 16.1 mph N/A   Overcast
8:14 PM 62.6 °F 52.7 °F 70% 30.05 in 10.0 mi NW 13.8 mph 19.6 mph N/A   Overcast
8:35 PM 61.9 °F 52.2 °F 70% 30.05 in 10.0 mi NW 11.5 mph 17.3 mph N/A   Overcast
8:55 PM 61.5 °F 51.8 °F 70% 30.05 in 10.0 mi NW 11.5 mph 16.1 mph N/A   Overcast
9:14 PM 60.8 °F 50.9 °F 70% 30.05 in 10.0 mi NW 10.4 mph 19.6 mph N/A   Scattered Clouds
9:35 PM 59.9 °F 50.9 °F 72% 30.06 in 10.0 mi WNW 9.2 mph 17.3 mph N/A   Clear
9:55 PM 59.9 °F 51.1 °F 73% 30.06 in 10.0 mi NW 10.4 mph - N/A   Clear
10:14 PM 59.9 °F 51.1 °F 73% 30.06 in 10.0 mi NW 12.7 mph 21.9 mph N/A   Scattered Clouds
10:35 PM 60.1 °F 51.1 °F 72% 30.07 in 10.0 mi WNW 10.4 mph 18.4 mph N/A   Scattered Clouds
10:54 PM 59.9 °F 51.1 °F 73% 30.07 in 10.0 mi NW 13.8 mph 21.9 mph N/A   Clear
11:15 PM 59.2 °F 50.7 °F 74% 30.07 in 10.0 mi WNW 8.1 mph 17.3 mph N/A   Clear
11:35 PM 58.5 °F 50.7 °F 75% 30.07 in 10.0 mi NW 6.9 mph - N/A   Clear
11:54 PM 58.1 °F 50.5 °F 76% 30.07 in 10.0 mi West 4.6 mph - N/A   Scattered Clouds